Content
SEND FEEDBACK

Daily
Averages
Monthly
Summary
Finland

HELSINKI, FINLAND


Home > Europe > Finland
Elevation: 184 feet     Latitude: 60 19N     Longitude: 024 58E

WEATHER
 
SELECT A DAY
Number of Records: 310,815;   Date Range: 7/1/96 - 7/23/14
 
SHARE

PRINT THIS DATA

[ ← Previous Day ]
WEATHER ALMANAC - APRIL 30, 2013
[ Next Day → ]
[ °C ]   °F
Weather ElementAverageHighLow
Temperature43.3 °F46.4 °F (12:20 pm)39.2 °F (11:20 pm)
Dewpoint36.5 °F41 °F (12:50 am)32 °F (3:20 pm)
Humidity77.3 %93 % (12:50 am)55 % (3:00 pm)
Barometer29.71 in29.83 in (11:20 pm)29.65 in (4:20 am)
Wind Speed14.5 mph24.6 mph (3:00 pm)
Weather ElementAverage
Visibility6.7 mi
Wind DirectionSSW (214.8 °)

Weather ElementTotal
Precipitation---
Heating Degree Days22.2 (Base 65)
Averaged from 50 records on April 30, 2013
WEATHER CONDITIONS BREAKOUT
WIND DIRECTION BREAKOUT
WEATHER BY HOUR - APRIL 30, 2013
[ °C ]   °F
Local TimeTemperatureDewpointHumidityBarometerVisibilityWind DirectionWind SpeedGust SpeedPrecipitationEventsConditions
12:50 AM42.8 °F41.0 °F93 %29.74 in5.0 miSSE (150°)12.7 mphRainRain
1:20 AM42.8 °F39.2 °F87 %29.71 in6.2 miSSE (160°)13.8 mphRainLight Rain
1:50 AM42.8 °F39.2 °F87 %29.71 in6.2 miSouth (170°)12.7 mphRainLight Rain
2:20 AM42.8 °F39.2 °F87 %29.68 in6.2 miSouth (190°)16.1 mphRainLight Rain
2:50 AM41.0 °F39.2 °F93 %29.68 in4.3 miSouth (190°)17.3 mphRainRain
3:00 AM42.0 °F40.0 °F91 %29.71 in4.0 miSSW (200°)17.9 mphRainRain
3:20 AM42.8 °F41.0 °F93 %29.68 in4.3 miSSW (200°)15.0 mphRainRain
3:50 AM41.0 °F39.2 °F93 %29.68 in6.2 miSW (220°)11.5 mphRainLight Rain
4:20 AM41.0 °F39.2 °F93 %29.65 in6.2 miSSW (210°)10.4 mphRainLight Rain
4:50 AM41.0 °F39.2 °F93 %29.65 in5.0 miSSW (210°)11.5 mphMostly Cloudy
5:20 AM41.0 °F39.2 °F93 %29.65 in4.3 miSSW (210°)11.5 mphMostly Cloudy
5:50 AM41.0 °F37.4 °F87 %29.65 in3.7 miSSW (210°)12.7 mphMostly Cloudy
6:20 AM41.0 °F37.4 °F87 %29.65 in3.1 miSW (220°)10.4 mphMostly Cloudy
6:50 AM41.0 °F37.4 °F87 %29.65 in2.8 miSSW (210°)8.1 mphMostly Cloudy
7:20 AM41.0 °F37.4 °F87 %29.65 in2.8 miSW (220°)9.2 mphMostly Cloudy
7:50 AM41.0 °F37.4 °F87 %29.65 in3.1 miSW (220°)10.4 mphMostly Cloudy
8:20 AM41.0 °F37.4 °F87 %29.68 in4.3 miSW (220°)11.5 mphMostly Cloudy
8:50 AM41.0 °F37.4 °F87 %29.68 in5.6 miSW (230°)11.5 mphMostly Cloudy
9:00 AM42.0 °F39.0 °F83 %29.70 in6.0 miWSW (240°)13.4 mphMist
9:20 AM42.8 °F37.4 °F81 %29.68 in6.2 miSW (220°)11.5 mphMostly Cloudy
9:50 AM42.8 °F37.4 °F81 %29.68 in6.2 miSW (230°)13.8 mphMostly Cloudy
10:20 AM42.8 °F37.4 °F81 %29.68 in6.2 miSSW (210°)12.7 mphMostly Cloudy
10:50 AM42.8 °F37.4 °F81 %29.68 in6.2 miSW (220°)13.8 mphMostly Cloudy
11:20 AM44.6 °F37.4 °F76 %29.68 in6.2 miSSW (200°)15.0 mphMostly Cloudy
11:50 AM44.6 °F37.4 °F76 %29.68 in6.2 miSSW (200°)18.4 mphMostly Cloudy
12:20 PM46.4 °F35.6 °F66 %29.68 in6.2 miSSW (210°)20.7 mphRainLight Rain Showers
1:20 PM44.6 °F33.8 °F66 %29.71 in6.2 miSW (230°)18.4 mphMostly Cloudy
1:50 PM44.6 °F35.6 °F71 %29.71 in6.2 miSW (230°)19.6 mphMostly Cloudy
2:20 PM44.6 °F33.8 °F66 %29.71 in6.2 miSW (230°)20.7 mphMostly Cloudy
2:50 PM46.4 °F33.8 °F62 %29.71 in6.2 miSW (220°)19.6 mphMostly Cloudy
3:00 PM46.0 °F35.0 °F55 %29.73 in31.0 miWSW (240°)24.6 mphMostly Cloudy
3:20 PM46.4 °F32.0 °F57 %29.71 in6.2 miSW (230°)20.7 mphMostly Cloudy
3:50 PM46.4 °F35.6 °F66 %29.71 in6.2 miSW (220°)20.7 mphScattered Clouds
4:20 PM46.4 °F33.8 °F62 %29.71 in6.2 miSW (230°)21.9 mphMostly Cloudy
4:50 PM46.4 °F33.8 °F62 %29.71 in6.2 miSW (220°)19.6 mphMostly Cloudy
5:20 PM46.4 °F33.8 °F62 %29.71 in6.2 miSW (230°)21.9 mphMostly Cloudy
5:50 PM46.4 °F33.8 °F62 %29.74 in6.2 miSW (230°)21.9 mphMostly Cloudy
6:20 PM46.4 °F35.6 °F66 %29.74 in6.2 miSW (220°)16.1 mphMostly Cloudy
6:50 PM44.6 °F35.6 °F71 %29.74 in6.2 miSSW (210°)15.0 mphPartly Cloudy
7:20 PM44.6 °F35.6 °F71 %29.74 in6.2 miSW (220°)13.8 mphScattered Clouds
7:50 PM46.4 °F35.6 °F66 %29.74 in6.2 miSW (220°)12.7 mphPartly Cloudy
8:20 PM44.6 °F35.6 °F71 %29.74 in6.2 miSSW (210°)13.8 mphPartly Cloudy
8:50 PM44.6 °F35.6 °F71 %29.77 inSW (220°)10.4 mphClear
9:00 PM45.0 °F36.0 °F62 %29.78 in31.0 miSW (230°)13.4 mph
9:20 PM42.8 °F35.6 °F76 %29.77 inSW (220°)10.4 mphClear
9:50 PM42.8 °F33.8 °F70 %29.80 inSSW (210°)10.4 mphClear
10:20 PM41.0 °F33.8 °F76 %29.80 inSW (220°)11.5 mphClear
10:50 PM41.0 °F33.8 °F76 %29.80 inSSW (210°)9.2 mphClear
11:20 PM39.2 °F33.8 °F81 %29.83 inSW (220°)9.2 mphClear
11:50 PM39.2 °F33.8 °F81 %29.83 inWSW (250°)8.1 mphClear
Hourly data recorded from EFHK, located miles away from Helsinki, Finland







STORIES FROM OUR PARTNERS